Regional Weather Roundup
Issued by NWS

Home | Current Version | Previous Version | Text Only | Print | Product List | Glossary On
Versions: 1 2 3 4 5 6 7 8 9 10 11 12 13 14 15 16 17 18 19 20 21 22 23 24 25 26 27 28 29 30 31 32 33 34 35 36 37 38 39 40 41 42 43 44 45 46 47 48 49
000
ASUS45 KCYS 300010
RWRWY

WYOMING REGIONAL WEATHER ROUNDUP
NATIONAL WEATHER SERVICE CHEYENNE WY
500 PM MST THU JAN 29 2015

NOTE:  "FAIR" INDICATES FEW OR NO CLOUDS BELOW 12,000 FEET
WITH NO SIGNIFICANT WEATHER AND/OR OBSTRUCTIONS TO VISIBILITY.

WYZ001-300100-
YELLOWSTONE NATIONAL PARK

CITY           SKY/WX    TMP DP  RH WIND       PRES   REMARKS
LK YELLOWSTONE   N/A     20  15  81 CALM      30.36S
6HR MIN TEMP:  16; 6HR MAX TEMP:  24;

W YELLOWSTONE  NOT AVBL

$$
WYZ002>013-054>058-071-098>099-300100-
NORTHERN WYOMING

CITY           SKY/WX    TMP DP  RH WIND       PRES   REMARKS
JACKSON        CLEAR     28  25  86 CALM      30.35S
CODY           FAIR      39  30  70 SE7       30.29S WCI  34
GREYBULL       FOG       30  30 100 NW6       30.32S VSB 1/4 WCI  24
6HR MIN TEMP:  30; 6HR MAX TEMP:  34;

WORLAND        FAIR      36  29  75 E10       30.30F WCI  28
6HR MIN TEMP:  31; 6HR MAX TEMP:  39;

SHERIDAN       FAIR      43  24  47 E3        30.28S
6HR MIN TEMP:  38; 6HR MAX TEMP:  49;

BUFFALO        FAIR      41  27  57 SW3       30.28F
6HR MIN TEMP:  41; 6HR MAX TEMP:  46;

GILLETTE       FAIR      40  24  53 S9        30.30F WCI  34
6HR MIN TEMP:  40; 6HR MAX TEMP:  47;

HULETT           N/A    N/A N/A N/A MISG        N/A
NEWCASTLE      FAIR      37  21  52 S3        30.38R

$$
WYZ014>020-022>026-101>103-300100-
CENTRAL WYOMING

CITY           SKY/WX    TMP DP  RH WIND       PRES   REMARKS
BIG PINEY      FAIR      32  23  69 NE6       30.35F WCI  26
6HR MIN TEMP:  28; 6HR MAX TEMP:  36;

PINEDALE       FAIR      30  23  74 W6        30.36S WCI  24
DUBOIS         FAIR      32  19  59 W7        30.29F WCI  26
LANDER         FAIR      37  27  67 NW5       30.29F WCI  33
6HR MIN TEMP:  34; 6HR MAX TEMP:  41;

RIVERTON       FAIR      37  29  72 E6        30.31F WCI  32
6HR MIN TEMP:  36; 6HR MAX TEMP:  43;

CASPER         FAIR      39  27  62 S6        30.32F WCI  35
6HR MIN TEMP:  37; 6HR MAX TEMP:  46;

DOUGLAS        FAIR      40  23  50 SE8       30.35F WCI  34
6HR MIN TEMP:  40; 6HR MAX TEMP:  47;


$$
WYZ021-027>030-104>119-300100-
SOUTHERN WYOMING

CITY           SKY/WX    TMP DP  RH WIND       PRES   REMARKS
EVANSTON       FAIR      33  28  81 E8        30.31F WCI  26
6HR MIN TEMP:  30; 6HR MAX TEMP:  36;

KEMMERER       FAIR      32  27  80 NE6       30.32F WCI  26
FORT BRIDGER   FAIR      35  32  90 NW6       30.34S WCI  30
ROCK SPRINGS   FAIR      35  28  75 CALM      30.31F
6HR MIN TEMP:  28; 6HR MAX TEMP:  38;

DIXON          FAIR      38  31  75 CALM      30.33F
RAWLINS        FAIR      36  26  67 NE5       30.33S WCI  32
6HR MIN TEMP:  36; 6HR MAX TEMP:  43;

SARATOGA       FAIR      37  30  75 N5        30.33S WCI  34
LARAMIE        FAIR      33  25  72 SE14      30.34S WCI  23
6HR MIN TEMP:  31; 6HR MAX TEMP:  39;

CHEYENNE       FAIR      38  23  55 S12       30.37F WCI  30
6HR MIN TEMP:  38; 6HR MAX TEMP:  44;

TORRINGTON     FAIR      40  20  44 E8        30.37F WCI  34
6HR MIN TEMP:  40; 6HR MAX TEMP:  48;

PINE BLUFFS    FAIR      41  27  56 S6        30.40S

$$


USA.gov is the U.S. government's official web portal to all federal, state and local government web resources and services.